Location: London
(51.5074°N, 0.1278°W)
Time: 03:03:04
(UTC+01:00)

Envisat - Pass Details

Date: 03 October 2021
Orbit: 764 x 766 km, 98.2° (Epoch: 23 October)

Event Time Altitude Azimuth Distance (km) Brightness Sun altitude
Rises 04:58:10 0° 26° (NNE) 3,244 6.9 -20.2°
Reaches altitude 10° 05:01:11 10° 44° (NE) 2,312 6.4 -19.7°
Maximum altitude 05:04:43 19° 88° (E) 1,777 5.8 -19.2°
Drops below altitude 10° 05:08:14 10° 133° (SE) 2,299 5.8 -18.7°
Sets 05:11:13 0° 151° (SSE) 3,219 6.4 -18.3°
